Regional Weather Roundup
Issued by NWS

Home | Current Version | Previous Version | Graphics & Text | Print | Product List | Glossary On
Versions: 1 2 3 4 5 6 7 8 9 10 11 12 13 14 15 16 17 18 19 20 21 22 23 24 25 26 27 28 29 30 31 32 33 34 35 36 37 38 39 40 41 42 43 44 45 46 47 48 49 50
000
ASUS44 KMEG 030300
RWRTN
TENNESSEE HOURLY STATE WEATHER ROUNDUP
NATIONAL WEATHER SERVICE MEMPHIS TN
1000 PM CDT TUE JUN 02 2015

TNZ002-004-019-021-049-052-054-088>092-030400-
WEST TENNESSEE

CITY           SKY/WX    TMP DP  RH WIND       PRES   REMARKS
MEMPHIS INTL   PTCLDY    69  59  70 NE8       30.03R
NWS MEMPHIS      N/A     66 N/A N/A MISG        N/A
JACKSON        CLOUDY    64  60  87 NE3       30.04R
DYERSBURG      CLOUDY    64  48  55 N6        30.05S
PARIS          CLOUDY    61  57  88 NE5       30.06R
LEXINGTON      CLOUDY    63  59  88 CALM      30.03R
$$

TNZ008-025-027-028-033-062-065-066-030400-
NORTH MIDDLE TENNESSEE

CITY           SKY/WX    TMP DP  RH WIND       PRES   REMARKS
NASHVILLE      MOCLDY    64  60  87 N8        30.05S
CLARKSVILLE    CLOUDY    63  59  87 NE5       30.06S
COOKEVILLE     CLEAR     63  61  94 NE5       30.03S
CROSSVILLE     PTCLDY    62  57  83 N5        30.06S
$$

TNZ061-075-076-078-094-096-097-030400-
SOUTH MIDDLE TENNESSEE

CITY           SKY/WX    TMP DP  RH WIND       PRES   REMARKS
FAYETTEVILLE   CLEAR    N/A N/A N/A MISG      30.03R
TULLAHOMA      CLOUDY    63  59  88 N3        30.05R
WINCHESTER     CLOUDY    64  61  88 N7        30.04R
MCMINNVILLE    CLEAR     63  63 100 NW3       30.04S
COLUMBIA       CLOUDY    64  61  88 NE3       30.02S
SHELBYVILLE    PTCLDY    63  61  94 N6        30.05R
$$

TNZ017-018-042-046-047-030400-
NORTHEAST TENNESSEE

CITY           SKY/WX    TMP DP  RH WIND       PRES   REMARKS
TRI CITIES     PTCLDY    60  58  92 CALM      30.04R
ELIZABETHTON   CLEAR     55  55 100 N6        30.05R
$$

TNZ012-013-036-069-073-074-030400-
CENTRAL EAST TENNESSEE

CITY           SKY/WX    TMP DP  RH WIND       PRES   REMARKS
KNOXVILLE      MOCLDY    64  62  93 NE6       30.00R
OAK RIDGE      CLOUDY    67  59  75 CALM      30.03R
GATLINBURG     CLEAR     61  61 100 CALM      30.01F
$$

TNZ083-085-099-030400-
SOUTHEAST TENNESSEE

CITY           SKY/WX    TMP DP  RH WIND       PRES   REMARKS
CHATTANOOGA    MOCLDY    69  63  81 N7        30.01R
$$

SKY/WX REPORTED AS FAIR MEANS FEW OR NO CLOUDS BELOW
12 THOUSAND FEET.




USA.gov is the U.S. government's official web portal to all federal, state and local government web resources and services.